Time,TemperatureF,DewpointF,PressureIn,WindDirection,WindDirectionDegrees,WindSpeedMPH,WindSpeedGustMPH,Humidity,HourlyPrecipIn,Conditions,Clouds,dailyrainin,SoftwareType,DateUTC
2013-03-09 00:33:00,29.1,29.0,29.95,WNW,289,0.0,-999.0,98,-99.99,,,0.00,weatherlink.com 1.10,2013-03-09 08:33:00,
2013-03-09 02:54:00,27.5,27.0,29.98,WNW,289,0.0,-999.0,97,-99.99,,,0.00,weatherlink.com 1.10,2013-03-09 10:54:00,
2013-03-09 11:21:00,31.8,32.0,30.15,WNW,289,0.0,-999.0,99,-99.99,,,0.01,weatherlink.com 1.10,2013-03-09 19:21:00,
2013-03-09 11:50:00,31.6,31.0,30.16,WNW,291,0.0,-999.0,99,-99.99,,,0.01,weatherlink.com 1.10,2013-03-09 19:50:00,
2013-03-09 12:36:00,31.9,32.0,30.15,WNW,289,0.0,-999.0,99,-99.99,,,0.05,weatherlink.com 1.10,2013-03-09 20:36:00,
2013-03-09 13:09:00,31.6,31.0,30.16,WNW,289,0.0,-999.0,99,-99.99,,,0.07,weatherlink.com 1.10,2013-03-09 21:09:00,
2013-03-09 14:10:00,31.3,31.0,30.18,WNW,292,0.0,-999.0,99,-99.99,,,0.11,weatherlink.com 1.10,2013-03-09 22:10:00,
2013-03-09 14:20:00,31.2,31.0,30.18,WNW,292,0.0,-999.0,99,-99.99,,,0.11,weatherlink.com 1.10,2013-03-09 22:20:00,
2013-03-09 14:37:00,30.7,31.0,30.18,WNW,292,0.0,-999.0,99,-99.99,,,0.12,weatherlink.com 1.10,2013-03-09 22:37:00,
2013-03-09 14:52:00,31.0,31.0,30.19,WNW,292,0.0,-999.0,99,-99.99,,,0.12,weatherlink.com 1.10,2013-03-09 22:52:00,
2013-03-09 15:05:00,31.0,31.0,30.18,WNW,292,0.0,-999.0,99,-99.99,,,0.13,weatherlink.com 1.10,2013-03-09 23:05:00,
2013-03-09 15:22:00,30.6,30.0,30.20,WNW,292,0.0,-999.0,99,-99.99,,,0.13,weatherlink.com 1.10,2013-03-09 23:22:00,
2013-03-09 15:52:00,30.2,30.0,30.21,WNW,292,0.0,-999.0,99,-99.99,,,0.14,weatherlink.com 1.10,2013-03-09 23:52:00,
2013-03-09 16:42:00,29.4,29.0,30.21,WNW,292,0.0,-999.0,98,-99.99,,,0.14,weatherlink.com 1.10,2013-03-10 00:42:00,
2013-03-09 16:50:00,29.3,29.0,30.23,WNW,292,0.0,-999.0,98,-99.99,,,0.14,weatherlink.com 1.10,2013-03-10 00:50:00,
2013-03-09 17:39:00,28.8,28.0,30.24,WNW,292,0.0,-999.0,98,-99.99,,,0.15,weatherlink.com 1.10,2013-03-10 01:39:00,
2013-03-09 17:52:00,28.8,28.0,30.25,WNW,292,0.0,-999.0,98,-99.99,,,0.15,weatherlink.com 1.10,2013-03-10 01:52:00,
2013-03-09 18:21:00,28.2,28.0,30.27,WNW,292,0.0,-999.0,97,-99.99,,,0.15,weatherlink.com 1.10,2013-03-10 02:21:00,
2013-03-09 18:44:00,27.8,27.0,30.27,WNW,292,0.0,-999.0,97,-99.99,,,0.15,weatherlink.com 1.10,2013-03-10 02:44:00,
2013-03-09 20:34:00,27.9,27.0,30.29,WNW,292,0.0,-999.0,97,-99.99,,,0.15,weatherlink.com 1.10,2013-03-10 04:34:00,